"Pseudo-MPEC" for P11bVpq
Created 2021 Jan 21 12:07:15 UT using Find_Orb
Click here for an explanation of pseudo-MPECs
Astrometry: P11bVpq C2021 01 12^yjJ=R:gsb+EEALb6(3
AstrometryGejtf=As!t=Kkx$_ewHpnGo
F51 P11bVpq C2021 01 122iuO%WQl$\x\ys/!H'm%*Sj\U:*
redacted;d
clickk_kK=v
hereF51 P11bVpq C2021 01 12
qulTN
forO-G^.Iei=DsJ4/%)9'G
explanation0M,UR#,#yxWM'e
F51 P11bVpq C2021 01 12NfMR+IPjsSR!G3H1:/@lfLpe%'l,FuLNM2jvb4IZB!6i48TOGtu4
F51 Station data: (F51) Pan-STARRS 1, Haleakala (N20.707235 W156.255910) US/Hawaii. Observers N. Primak, A. Schultz, S. Watters, J. Thiel, T. Goggia. Measurer PS1 Science Consortium. 1.8-m Ritchey-Chrétien + CCD. Orbital elements: P11bVpq Perihelion 2021 Mar 3.567052 +/- 46.9606 TT = 13:36:33 (JD 2459277.067052) Epoch 2021 Jan 12.0 TT = JDT 2459226.5 Earth MOID: 0.3211 AutoNEOCP M 345.80494212 +/- 14.353160 (J2000 ecliptic) n 0.28071752 +/- 0.242771 Peri. 174.41465 +/- 84.089069 a 2.31005876 +/- 1.30357 Node 337.75710 +/- 43.645964 e 0.4328525 +/- 0.239977 Incl. 6.36308 +/- 3.0161842 P 3.51 H 23.0 G 0.15 U 11.8 SR q 1.31014394 +/- 0.461638 Q 3.30997357 +/- 97.1066 From 4 observations 2021 Jan. 12 (49.3 min); mean residual 0".05
Residuals in arcseconds: 210112 F51 .06- .03+ 210112 F51 .04+ .01+ 210112 F51 .07+ .06- 210112 F51 .05- .01+ Ephemerides (geocentric): Date (UTC) HH RA Dec delta r elong mag " sig PA ---- -- -- -- ------------- ----------- ------ ------ ----- --- ---- --- 2021 01 21 12 08 22 14.853 +33 11 53.92 .39421 1.3706 166.5 22.3 37d 172 2021 01 21 13 08 22 13.756 +33 11 33.81 .39409 1.3704 166.5 22.3 37d 172 2021 01 21 14 08 22 12.659 +33 11 13.65 .39396 1.3703 166.5 22.3 37d 172 2021 01 21 15 08 22 11.560 +33 10 53.44 .39384 1.3702 166.5 22.3 37d 171 2021 01 21 16 08 22 10.461 +33 10 33.17 .39371 1.3701 166.5 22.3 37d 171 2021 01 21 17 08 22 09.361 +33 10 12.85 .39359 1.3700 166.5 22.3 37d 171 2021 01 21 18 08 22 08.260 +33 09 52.48 .39346 1.3699 166.5 22.3 37d 171 2021 01 21 19 08 22 07.158 +33 09 32.05 .39334 1.3697 166.5 22.3 37d 171 2021 01 21 20 08 22 06.056 +33 09 11.56 .39322 1.3696 166.5 22.3 37d 171 2021 01 21 21 08 22 04.952 +33 08 51.03 .39310 1.3695 166.6 22.3 37d 171 2021 01 21 22 08 22 03.848 +33 08 30.44 .39297 1.3694 166.6 22.3 37d 171 2021 01 21 23 08 22 02.743 +33 08 09.79 .39285 1.3693 166.6 22.3 37d 171 2021 01 22 00 08 22 01.637 +33 07 49.09 .39273 1.3692 166.6 22.3 37d 171 2021 01 22 01 08 22 00.531 +33 07 28.34 .39261 1.3690 166.6 22.3 37d 171 2021 01 22 02 08 21 59.424 +33 07 07.53 .39248 1.3689 166.6 22.3 37d 171 2021 01 22 03 08 21 58.316 +33 06 46.67 .39236 1.3688 166.6 22.3 37d 171 2021 01 22 04 08 21 57.207 +33 06 25.75 .39224 1.3687 166.6 22.3 37d 171 2021 01 22 05 08 21 56.098 +33 06 04.78 .39212 1.3686 166.6 22.3 37d 171 2021 01 22 06 08 21 54.988 +33 05 43.75 .39200 1.3685 166.6 22.3 37d 171 2021 01 22 07 08 21 53.877 +33 05 22.67 .39188 1.3683 166.5 22.3 37d 171 2021 01 22 08 08 21 52.765 +33 05 01.54 .39176 1.3682 166.5 22.3 37d 171 2021 01 22 09 08 21 51.653 +33 04 40.35 .39164 1.3681 166.5 22.3 37d 171 2021 01 22 10 08 21 50.541 +33 04 19.11 .39152 1.3680 166.5 22.3 38d 162 2021 01 22 11 08 21 49.427 +33 03 57.81 .39140 1.3679 166.5 22.3 38d 162 2021 01 22 12 08 21 48.313 +33 03 36.46 .39128 1.3678 166.5 22.3 38d 162 2021 01 22 13 08 21 47.199 +33 03 15.05 .39116 1.3676 166.5 22.3 38d 162 2021 01 22 14 08 21 46.084 +33 02 53.59 .39104 1.3675 166.5 22.3 38d 162 2021 01 22 15 08 21 44.968 +33 02 32.07 .39092 1.3674 166.5 22.3 38d 162 2021 01 22 16 08 21 43.852 +33 02 10.50 .39081 1.3673 166.5 22.3 38d 162 2021 01 22 17 08 21 42.735 +33 01 48.88 .39069 1.3672 166.5 22.3 38d 162 2021 01 22 18 08 21 41.618 +33 01 27.20 .39057 1.3671 166.5 22.3 38d 162 2021 01 22 19 08 21 40.500 +33 01 05.46 .39045 1.3670 166.5 22.3 38d 162 2021 01 22 20 08 21 39.381 +33 00 43.68 .39033 1.3668 166.5 22.3 38d 162 2021 01 22 21 08 21 38.262 +33 00 21.83 .39022 1.3667 166.5 22.3 38d 162 2021 01 22 22 08 21 37.143 +32 59 59.93 .39010 1.3666 166.5 22.3 38d 162 2021 01 22 23 08 21 36.023 +32 59 37.98 .38998 1.3665 166.5 22.3 38d 162 2021 01 23 00 08 21 34.903 +32 59 15.97 .38987 1.3664 166.5 22.3 38d 162 2021 01 23 01 08 21 33.782 +32 58 53.91 .38975 1.3663 166.5 22.3 38d 162 2021 01 23 02 08 21 32.660 +32 58 31.79 .38964 1.3662 166.5 22.3 38d 162 2021 01 23 03 08 21 31.539 +32 58 09.62 .38952 1.3660 166.5 22.3 38d 162 2021 01 23 04 08 21 30.416 +32 57 47.39 .38941 1.3659 166.5 22.3 38d 162 2021 01 23 05 08 21 29.294 +32 57 25.11 .38929 1.3658 166.5 22.3 38d 162 2021 01 23 06 08 21 28.171 +32 57 02.77 .38918 1.3657 166.5 22.3 38d 162 2021 01 23 07 08 21 27.048 +32 56 40.38 .38906 1.3656 166.5 22.3 38d 162 2021 01 23 08 08 21 25.924 +32 56 17.93 .38895 1.3655 166.5 22.3 38d 162 2021 01 23 09 08 21 24.800 +32 55 55.43 .38883 1.3654 166.5 22.3 38d 162 2021 01 23 10 08 21 23.675 +32 55 32.87 .38872 1.3652 166.5 22.3 38d 162 2021 01 23 11 08 21 22.551 +32 55 10.26 .38861 1.3651 166.5 22.3 38d 162